Theta_e
344 344 349 350 343 335 333 333 332 331 331 330 330 328 328 331 336 340 342 342 344 345 346 346 346 344 345 345 343 339 338 337 336 336 334 335 339 330 339 345 344 341 339
343 344 346 346 344 337 334 332 331 330 331 329 328 333 337 338 340 343 344 344 345 345 344 345 345 344 344 343 339 337 336 336 337 338 341 339 332 337 333 344 344 341 340
343 343 343 345 343 336 334 332 330 331 328 330 338 340 342 345 345 345 343 343 344 342 341 344 343 340 340 343 345 341 338 337 338 342 340 338 338 337 336 336 343 337 334
343 343 344 345 341 335 331 329 330 328 332 341 345 346 345 344 342 340 339 338 340 343 342 342 339 338 337 336 336 335 335 335 336 337 335 337 338 339 342 343 338 337 334
343 343 345 342 338 333 331 329 330 337 343 344 342 341 340 339 337 334 333 333 332 332 331 329 327 327 329 331 332 333 333 334 335 332 331 333 336 339 341 345 341 338 337
343 343 345 341 337 334 330 336 341 345 342 341 338 337 334 329 319 318 317 315 316 317 320 323 325 325 323 322 322 323 324 328 329 327 327 329 334 340 342 340 340 337 336
344 345 344 339 334 331 340 346 344 341 340 335 330 328 322 320 321 320 320 320 321 321 324 328 326 325 323 322 321 322 325 326 323 321 321 329 333 341 342 341 339 337 337
344 344 341 337 331 341 341 340 340 336 332 326 323 323 323 323 323 321 321 321 322 321 323 328 323 322 321 321 321 321 322 326 321 325 330 337 334 342 343 341 338 337 337
344 343 339 341 343 340 339 337 334 330 326 325 325 324 324 323 323 323 322 323 323 325 323 322 321 322 321 321 323 321 321 321 326 336 336 336 339 342 341 337 330 336 336
343 338 339 337 339 338 337 333 328 323 324 326 325 326 323 323 323 323 322 323 323 323 323 321 323 321 322 324 324 324 323 322 321 331 335 338 338 338 337 337 337 337 336
341 340 336 335 335 337 334 330 325 325 326 325 325 325 324 322 322 323 323 321 321 321 320 321 322 322 322 321 323 324 324 325 324 327 329 329 333 335 334 334 333 333 333
343 340 338 333 337 335 333 330 329 328 326 325 324 325 324 322 322 322 321 320 318 319 319 320 322 322 321 321 322 322 323 325 328 329 330 328 331 334 331 326 326 328 329
338 339 338 334 336 335 333 331 330 326 325 324 323 323 322 321 321 321 320 318 318 319 320 321 321 321 321 321 321 322 323 325 327 328 331 332 334 335 335 333 330 331 331
340 337 334 334 336 335 333 333 330 327 325 324 320 321 319 322 321 319 319 317 318 319 320 321 320 321 321 320 321 321 323 327 328 329 330 331 330 331 332 334 334 334 333
340 335 332 334 337 335 334 334 330 327 326 324 319 318 320 322 320 319 318 317 318 318 319 320 319 320 321 321 321 320 321 322 324 326 328 329 329 329 330 331 331 332 330
338 337 337 337 338 336 336 334 331 327 326 323 319 317 321 321 319 316 316 317 318 318 318 319 319 319 321 322 321 320 319 319 319 321 324 326 326 327 327 328 329 328 327
339 338 341 340 339 338 338 336 332 327 325 322 319 318 321 319 317 315 317 317 317 317 317 318 318 318 319 322 322 320 318 318 318 318 318 318 320 323 325 326 326 325 326
340 340 342 341 341 340 339 335 329 326 324 322 320 318 320 319 316 314 315 314 315 316 317 317 316 313 316 319 322 320 319 318 317 317 316 316 317 317 320 322 322 322 323
341 342 343 343 341 339 333 329 328 325 323 322 320 318 318 318 315 314 313 312 310 312 316 316 313 311 311 315 318 321 320 319 317 316 315 315 315 314 316 321 320 320 321
343 343 343 342 337 333 333 330 326 323 322 321 320 319 318 316 314 314 313 311 310 313 314 316 311 310 308 309 314 321 321 319 318 316 315 314 313 314 314 315 317 318 317
345 344 342 339 338 338 331 326 324 322 321 321 320 319 317 315 313 314 313 310 309 309 310 313 308 308 307 308 314 319 319 314 317 317 315 315 314 314 314 314 313 314 311
345 344 342 339 337 337 332 325 323 322 321 320 319 318 317 315 313 313 313 311 309 309 308 307 306 307 307 307 310 313 312 308 316 315 314 314 314 314 313 312 312 312 306
344 342 339 335 332 327 326 326 323 321 320 318 317 316 316 314 313 312 311 310 309 309 308 307 306 307 307 306 307 308 301 302 303 306 308 315 314 314 313 313 313 310 306
339 339 340 334 334 330 326 324 322 320 319 319 317 316 314 313 313 312 312 312 311 310 307 307 308 307 306 306 306 306 306 305 302 303 306 307 306 311 311 310 311 310 307
336 340 337 335 331 330 327 323 321 321 320 319 316 315 314 313 313 313 313 312 311 311 310 306 308 308 307 307 306 306 305 306 305 302 301 304 306 306 306 306 309 307 306
339 339 337 330 328 329 328 325 323 322 320 318 315 315 314 313 313 313 314 313 312 311 311 308 306 307 308 308 307 307 307 306 306 305 301 302 302 307 307 306 306 307 307
Wind_Speed
17 18 15 13 14 14 13 12 12 12 12 13 12 13 13 14 14 14 13 12 11 10 10 9 8 8 8 8 7 7 6 6 5 4 2 0 1 2 5 3 5 4 5
27 20 17 15 14 14 12 11 11 11 11 11 12 13 13 13 14 13 12 12 12 12 11 10 10 9 9 9 8 8 8 7 7 5 4 3 3 5 5 6 7 6 6
26 21 17 16 15 13 12 12 11 11 11 12 12 12 12 12 10 9 8 8 9 7 6 8 9 8 8 9 9 8 8 8 8 8 7 4 3 3 7 10 10 8 8
25 21 19 16 14 13 12 12 11 11 12 12 11 10 9 8 7 7 7 7 8 8 8 8 8 7 8 8 8 8 9 9 9 8 8 5 4 4 8 11 12 9 8
24 21 17 16 14 13 13 12 12 12 12 10 8 7 7 7 7 7 8 8 7 8 8 9 8 9 8 9 9 9 9 9 9 10 10 8 6 7 6 13 16 12 10
23 20 16 15 13 13 13 13 12 11 10 8 7 7 7 8 11 13 13 11 10 10 11 11 11 11 11 11 11 12 11 8 9 12 11 8 5 6 5 11 16 13 11
22 19 16 14 14 14 13 12 11 9 7 6 7 9 10 12 13 15 15 13 13 12 12 11 11 12 13 14 16 17 14 9 11 13 13 8 3 1 5 11 13 12 11
25 20 17 15 15 14 14 12 10 8 7 8 9 9 9 10 10 11 13 13 12 11 11 12 12 13 14 13 11 12 13 12 14 13 12 8 2 4 1 8 11 10 10
24 22 19 17 17 17 15 13 11 8 8 7 7 7 8 7 7 9 10 10 11 10 11 14 13 12 13 15 14 11 13 14 12 15 15 11 7 4 1 2 5 6 8
24 23 22 21 19 17 16 13 10 11 9 5 5 4 6 7 9 7 8 8 9 10 10 12 12 14 14 16 18 16 13 12 12 15 19 15 9 5 5 4 3 4 5
23 23 23 21 20 18 16 13 12 10 7 5 6 4 4 6 7 7 8 8 9 10 11 12 15 15 14 16 16 15 14 13 12 14 16 13 11 10 5 3 4 5 6
24 25 24 23 22 20 17 16 13 9 6 5 3 5 3 4 6 7 8 9 10 10 10 13 13 15 16 17 17 15 17 15 15 15 15 13 13 12 9 6 5 5 6
33 29 28 26 24 22 20 17 13 9 6 4 2 3 2 3 6 7 6 9 9 9 11 13 13 16 18 20 20 19 17 15 16 17 16 15 15 13 11 8 7 7 5
33 33 29 27 26 23 19 17 13 10 6 4 1 1 2 3 5 7 7 8 7 10 11 11 13 17 17 20 21 22 21 18 18 18 18 16 15 13 11 13 10 9 6
33 36 34 32 28 24 20 19 15 12 8 3 3 3 3 4 5 6 5 6 7 8 11 9 11 13 14 16 18 21 22 22 20 19 22 20 20 20 18 19 18 22 19
34 39 36 34 30 26 22 23 19 14 8 5 4 5 5 7 6 5 5 7 7 8 9 9 10 10 11 12 16 19 20 21 21 20 20 21 21 21 20 20 20 21 21
40 43 39 36 32 30 24 26 24 17 11 8 6 6 6 6 5 6 7 7 6 5 6 7 10 10 11 11 13 15 17 18 19 20 20 19 20 20 21 21 20 18 19
39 42 39 36 33 29 31 29 26 19 14 9 8 7 6 6 5 5 5 4 4 3 3 6 8 10 7 9 8 11 13 14 16 17 18 19 18 19 20 20 21 21 20
38 40 41 39 34 32 32 28 24 21 16 11 10 7 6 7 5 4 5 7 6 1 4 6 10 10 8 7 5 9 9 10 13 15 16 16 16 16 18 18 19 18 18
32 36 36 39 37 35 29 26 23 21 17 13 10 9 7 7 6 4 5 6 5 3 6 5 10 9 8 4 6 10 8 8 9 11 12 12 14 15 16 17 16 16 16
29 30 33 37 40 37 33 32 28 26 20 15 12 11 8 9 7 8 7 7 7 9 10 8 11 8 11 4 6 11 10 7 10 8 8 8 9 10 11 11 12 11 13
28 25 31 33 37 38 37 33 30 27 20 16 13 11 9 9 10 11 7 6 7 7 11 11 10 11 13 11 6 4 2 3 10 6 3 3 4 4 4 4 6 7 11
21 22 19 13 5 8 27 33 28 24 21 16 15 13 11 11 12 12 10 7 8 8 10 11 10 14 16 22 15 5 2 1 2 8 9 2 2 1 2 3 3 1 3
19 24 26 16 14 10 20 28 34 28 23 20 19 16 14 13 14 12 10 8 9 10 12 10 12 12 14 14 15 20 16 6 2 2 8 12 12 1 1 5 8 5 3
15 16 19 14 17 19 30 26 28 29 25 22 19 19 16 14 12 12 9 8 9 10 12 11 12 14 15 15 12 8 12 14 13 4 1 7 10 9 6 4 9 8 7
9 8 22 13 13 23 34 29 30 28 24 26 24 23 19 16 14 13 10 10 8 8 9 10 9 11 13 14 14 12 13 6 5 6 2 3 4 4 9 10 7 7 8
Wind_Direction
172 160 157 142 130 126 122 114 105 100 98 94 89 86 84 84 80 75 70 64 63 62 57 49 41 39 35 33 29 24 19 19 20 19 10 360 140 152 185 210 184 208 194
160 159 155 142 133 129 123 116 113 111 104 98 95 91 87 84 79 75 70 64 59 51 50 49 40 40 35 28 24 26 24 19 10 356 343 310 250 233 217 209 205 234 217
150 154 154 146 140 134 129 125 121 115 109 103 100 94 88 81 87 87 77 76 70 64 59 46 37 30 32 28 20 15 19 18 16 10 356 338 311 241 238 233 229 234 221
147 154 151 151 144 139 135 134 128 121 114 107 100 103 107 104 86 71 64 54 51 49 43 36 30 23 21 13 8 6 7 8 7 358 354 357 336 279 242 250 233 235 227
151 154 154 153 148 144 141 136 129 126 120 128 127 119 105 88 69 58 47 47 44 36 33 26 16 10 7 1 357 354 354 354 353 348 348 340 314 307 266 229 216 227 227
151 154 156 152 146 146 140 135 135 133 133 126 118 107 92 86 77 64 54 48 44 43 42 35 30 28 25 16 11 8 359 354 354 357 352 328 290 304 224 186 204 221 228
154 157 154 155 153 150 143 138 141 140 138 127 110 106 95 92 67 59 52 50 52 52 42 31 29 27 32 33 33 29 19 13 9 3 357 345 303 212 196 198 214 234 237
158 158 159 161 158 153 152 153 155 152 138 117 106 100 92 78 62 56 50 44 38 48 31 20 31 33 24 20 15 24 32 28 25 11 13 7 80 85 218 228 233 246 250
162 161 161 160 162 162 157 157 157 142 128 122 111 91 81 66 48 46 43 41 45 38 36 43 31 28 32 29 33 36 45 48 39 42 43 42 88 82 185 282 289 271 278
167 166 170 171 172 165 161 157 145 134 122 115 128 105 69 46 42 48 47 51 49 34 45 29 33 29 49 54 51 53 43 40 44 53 58 55 54 18 355 342 328 309 299
172 175 174 175 171 168 163 151 143 142 144 124 129 121 80 53 56 69 64 54 39 41 36 38 47 64 53 45 48 52 51 50 53 54 54 57 59 49 43 347 315 312 317
180 185 179 177 174 172 166 159 155 155 147 150 118 119 83 62 71 84 67 42 36 45 49 49 66 58 50 49 54 55 59 58 58 56 45 43 39 35 27 17 3 333 310
182 183 186 181 179 178 172 165 163 152 140 136 116 126 86 99 86 85 51 39 65 57 44 70 72 66 60 59 54 52 55 68 77 64 47 45 46 41 30 10 356 348 341
186 187 187 186 184 181 176 173 169 161 154 136 104 125 99 110 92 78 62 56 53 57 63 90 76 70 65 64 62 59 62 71 74 75 61 52 47 39 33 39 43 44 39
185 187 188 187 186 184 182 181 179 173 158 142 112 117 117 87 98 56 45 59 65 66 64 81 68 73 73 69 65 64 68 71 73 70 69 58 58 55 54 57 59 61 59
187 185 185 188 189 187 190 188 184 182 173 138 116 116 101 98 80 48 51 80 81 69 64 71 78 80 75 78 76 75 72 70 72 72 70 70 60 56 55 58 63 66 66
192 188 187 187 191 192 194 194 186 184 169 149 128 118 110 110 78 76 87 85 71 62 62 90 86 82 83 96 87 85 78 77 76 77 76 74 72 61 57 57 56 58 64
186 191 189 189 194 198 192 185 180 179 169 161 138 134 134 128 103 90 79 55 33 23 68 86 89 68 77 99 109 100 94 85 80 76 74 69 67 69 66 62 61 55 62
188 185 188 192 189 182 175 175 175 175 172 163 147 137 134 130 114 91 77 48 30 346 134 90 80 64 60 85 115 133 116 97 86 82 75 70 69 68 72 70 67 63 61
184 185 181 182 176 171 173 175 173 172 165 162 149 138 132 135 134 124 98 65 61 96 108 119 92 70 46 57 117 134 121 112 100 89 72 74 75 74 72 75 78 75 63
181 171 174 173 179 175 173 167 168 170 164 156 153 148 142 156 141 137 124 84 64 74 81 108 97 78 45 64 118 108 113 82 101 103 80 71 78 75 73 71 69 84 58
172 170 175 181 178 179 180 178 176 167 164 162 162 151 155 160 150 148 124 96 79 86 84 90 95 91 60 52 109 109 30 82 69 84 107 82 70 76 66 67 80 89 54
149 158 148 143 158 296 180 174 170 164 159 160 162 156 154 153 142 141 129 110 96 86 79 75 81 89 85 70 72 114 82 222 1 47 40 50 6 198 200 246 220 158 68
140 153 162 144 128 60 235 185 173 169 167 178 174 165 162 161 151 147 132 112 101 89 74 85 80 87 98 81 75 70 76 78 127 7 30 48 24 31 178 261 239 236 260
102 151 179 177 201 207 230 200 185 181 182 176 174 170 168 157 160 158 156 138 111 100 87 90 89 87 85 87 82 79 77 66 61 98 353 346 29 66 50 340 241 245 259
125 183 266 224 184 209 207 205 202 198 182 175 177 176 172 166 165 166 169 162 136 115 103 89 105 98 88 81 76 74 71 78 54 60 72 305 313 17 35 47 22 272 279